Retour au catalogue

YAOGAN 31 ADAPTER

ActifLEO
NORAD 47692·DEBRIS·🇨🇳 China
Ce nom de satellite n'a pas encore été confirmé par des sources officielles.

Lancé Feb 24, 2021 depuis Jiuquan Satellite Launch Center

Loading…

Prochains Passages (prochaines 24 heures)

TLE

FraisSource: Space-Track

Époque: Sep 14, 2026, 20:13 UTC

1 47692U 21014B   26257.84243497 -.00000010  00000-0  12541-3 0  9997
2 47692  63.4083 340.1220 0178438   1.2839 358.8609 13.44235389272530

Suivez YAOGAN 31 ADAPTER en temps réel avec AllMySat

Download on the App Store